When you browse on this site, cookies collect data to enhance your experience and personalize the content and advertising you see.
Visit our Privacy Policy to learn more. By continuing to use the site, you agree to this use of cookies and data.
  • In Latvia
  • List of Countries
  • For 7 days
  • Water Temperature
  • Satellite Maps
  • Weather Map
  • Weather Widgets
  • user-avatar
    Login

    Hourly Weather Mingachevir

    Today, 18 June, Tuesday

    Time Temperature Precipitation Wind Pressure Humidity
    00:00 +27°C° 0 mm 2 mps 749 mmHg 56%
    01:00 +27°C° 0.4 mm 2 mps 749 mmHg 59%
    02:00 +26°C° 0.4 mm 1 mps 749 mmHg 62%
    03:00 +25°C° 0.4 mm 1 mps 749 mmHg 65%
    04:00 +26°C° 0.1 mm 1 mps 749 mmHg 63%
    05:00 +26°C° 0.1 mm 2 mps 749 mmHg 62%
    06:00 +27°C° 0.1 mm 2 mps 749 mmHg 60%
    07:00 +28°C° 0 mm 2 mps 749 mmHg 55%
    08:00 +30°C° 0 mm 2 mps 749 mmHg 49%
    09:00 +31°C° 0 mm 2 mps 749 mmHg 44%
    10:00 +32°C° 0 mm 2 mps 749 mmHg 40%
    11:00 +35°C° 0 mm 2 mps 748 mmHg 36%
    12:00 +36°C° 0 mm 3 mps 748 mmHg 32%
    13:00 +36°C° 0 mm 3 mps 748 mmHg 31%
    14:00 +37°C° 0 mm 4 mps 747 mmHg 30%
    15:00 +37°C° 0 mm 4 mps 747 mmHg 29%
    16:00 +37°C° 0 mm 4 mps 747 mmHg 31%
    17:00 +36°C° 0 mm 3 mps 747 mmHg 32%
    18:00 +36°C° 0 mm 3 mps 747 mmHg 34%
    19:00 +34°C° 0.2 mm 4 mps 748 mmHg 38%
    20:00 +32°C° 0.2 mm 5 mps 748 mmHg 42%
    21:00 +29°C° 0.2 mm 6 mps 749 mmHg 46%
    22:00 +28°C° 0.6 mm 5 mps 749 mmHg 50%
    23:00 +27°C° 0.6 mm 4 mps 749 mmHg 55%

    Tomorrow, 19 June, Wednesday

    Time Temperature Precipitation Wind Pressure Humidity
    00:00 +26°C° 0.6 mm 3 mps 749 mmHg 59%
    01:00 +26°C° 0.1 mm 2 mps 749 mmHg 61%
    02:00 +25°C° 0.1 mm 2 mps 749 mmHg 63%
    03:00 +25°C° 0.1 mm 1 mps 749 mmHg 66%
    04:00 +25°C° 0 mm 2 mps 749 mmHg 65%
    05:00 +26°C° 0 mm 2 mps 749 mmHg 64%
    06:00 +26°C° 0 mm 3 mps 749 mmHg 63%
    07:00 +28°C° 0 mm 3 mps 749 mmHg 57%
    08:00 +29°C° 0 mm 3 mps 749 mmHg 50%
    09:00 +31°C° 0 mm 3 mps 749 mmHg 44%
    10:00 +33°C° 0 mm 3 mps 749 mmHg 38%
    11:00 +35°C° 0 mm 3 mps 749 mmHg 32%
    12:00 +36°C° 0 mm 3 mps 748 mmHg 26%
    13:00 +37°C° 0 mm 4 mps 748 mmHg 26%
    14:00 +37°C° 0 mm 4 mps 748 mmHg 26%
    15:00 +37°C° 0 mm 5 mps 748 mmHg 25%
    16:00 +37°C° 0 mm 4 mps 747 mmHg 27%
    17:00 +36°C° 0 mm 4 mps 747 mmHg 29%
    18:00 +36°C° 0 mm 3 mps 747 mmHg 30%
    19:00 +34°C° 0 mm 4 mps 748 mmHg 32%
    20:00 +33°C° 0 mm 4 mps 748 mmHg 34%
    21:00 +30°C° 0 mm 4 mps 749 mmHg 36%
    22:00 +29°C° 0 mm 4 mps 749 mmHg 38%
    23:00 +29°C° 0 mm 3 mps 749 mmHg 40%

    Day after tomorrow, 20 June, Thursday

    Time Temperature Precipitation Wind Pressure Humidity
    00:00 +28°C° 0 mm 3 mps 749 mmHg 41%
    01:00 +27°C° 0 mm 3 mps 749 mmHg 42%
    02:00 +27°C° 0 mm 3 mps 749 mmHg 44%
    03:00 +26°C° 0 mm 2 mps 749 mmHg 45%
    04:00 +27°C° 0 mm 2 mps 749 mmHg 45%
    05:00 +27°C° 0 mm 2 mps 749 mmHg 46%
    06:00 +27°C° 0 mm 2 mps 749 mmHg 46%
    07:00 +29°C° 0 mm 2 mps 749 mmHg 40%
    08:00 +31°C° 0 mm 3 mps 749 mmHg 34%
    09:00 +34°C° 0 mm 4 mps 748 mmHg 28%
    10:00 +35°C° 0 mm 4 mps 748 mmHg 27%
    11:00 +36°C° 0 mm 4 mps 748 mmHg 25%
    12:00 +37°C° 0 mm 5 mps 747 mmHg 23%
    13:00 +39°C° 0 mm 5 mps 747 mmHg 23%
    14:00 +39°C° 0 mm 5 mps 747 mmHg 22%
    15:00 +39°C° 0 mm 5 mps 747 mmHg 22%
    16:00 +39°C° 0 mm 5 mps 746 mmHg 24%
    17:00 +37°C° 0 mm 4 mps 746 mmHg 25%
    18:00 +37°C° 0 mm 4 mps 746 mmHg 27%
    19:00 +35°C° 0 mm 4 mps 747 mmHg 29%
    20:00 +33°C° 0 mm 5 mps 747 mmHg 31%
    21:00 +30°C° 0 mm 5 mps 748 mmHg 33%
    22:00 +30°C° 0 mm 5 mps 748 mmHg 34%
    23:00 +29°C° 0 mm 5 mps 748 mmHg 36%

    21 June, Friday

    Time Temperature Precipitation Wind Pressure Humidity
    00:00 +28°C° 0 mm 4 mps 748 mmHg 38%
    01:00 +28°C° 0 mm 4 mps 748 mmHg 38%
    02:00 +27°C° 0 mm 3 mps 748 mmHg 39%
    03:00 +27°C° 0 mm 3 mps 748 mmHg 39%
    04:00 +27°C° 0 mm 3 mps 748 mmHg 39%
    05:00 +28°C° 0 mm 3 mps 748 mmHg 40%
    06:00 +28°C° 0 mm 3 mps 748 mmHg 40%
    07:00 +30°C° 0.1 mm 4 mps 749 mmHg 35%
    08:00 +32°C° 0.1 mm 4 mps 749 mmHg 31%
    09:00 +34°C° 0.1 mm 5 mps 749 mmHg 26%
    10:00 +35°C° 0.1 mm 5 mps 749 mmHg 26%
    11:00 +36°C° 0.1 mm 5 mps 748 mmHg 26%
    12:00 +36°C° 0.1 mm 5 mps 748 mmHg 26%
    13:00 +37°C° 0 mm 5 mps 748 mmHg 26%
    14:00 +38°C° 0 mm 6 mps 748 mmHg 26%
    15:00 +38°C° 0 mm 6 mps 748 mmHg 26%
    16:00 +36°C° 0 mm 5 mps 748 mmHg 28%
    17:00 +36°C° 0 mm 5 mps 748 mmHg 30%
    18:00 +35°C° 0 mm 5 mps 748 mmHg 32%
    19:00 +34°C° 0 mm 5 mps 748 mmHg 35%
    20:00 +33°C° 0 mm 4 mps 749 mmHg 38%
    21:00 +30°C° 0 mm 4 mps 749 mmHg 40%
    22:00 +30°C° 0 mm 4 mps 749 mmHg 41%
    23:00 +29°C° 0 mm 3 mps 750 mmHg 42%

    22 June, Saturday

    Time Temperature Precipitation Wind Pressure Humidity
    00:00 +28°C° 0 mm 3 mps 750 mmHg 44%
    01:00 +28°C° 0 mm 3 mps 750 mmHg 45%
    02:00 +27°C° 0 mm 3 mps 750 mmHg 45%
    03:00 +27°C° 0 mm 3 mps 750 mmHg 46%
    04:00 +27°C° 0 mm 3 mps 750 mmHg 45%
    05:00 +28°C° 0 mm 3 mps 750 mmHg 44%
    06:00 +28°C° 0 mm 3 mps 750 mmHg 42%
    07:00 +30°C° 0 mm 3 mps 750 mmHg 37%
    08:00 +33°C° 0 mm 3 mps 750 mmHg 32%
    09:00 +35°C° 0 mm 3 mps 750 mmHg 27%
    10:00 +36°C° 0 mm 4 mps 750 mmHg 25%
    11:00 +37°C° 0 mm 5 mps 750 mmHg 23%
    12:00 +40°C° 0 mm 5 mps 750 mmHg 22%
    13:00 +40°C° 0 mm 6 mps 749 mmHg 22%
    14:00 +40°C° 0 mm 6 mps 749 mmHg 22%
    15:00 +40°C° 0 mm 6 mps 749 mmHg 22%
    16:00 +39°C° 0 mm 6 mps 749 mmHg 23%
    17:00 +39°C° 0 mm 5 mps 749 mmHg 25%
    18:00 +37°C° 0 mm 5 mps 749 mmHg 26%
    19:00 +36°C° 0 mm 5 mps 749 mmHg 28%
    20:00 +34°C° 0 mm 6 mps 750 mmHg 30%
    21:00 +32°C° 0 mm 6 mps 750 mmHg 33%
    22:00 +32°C° 0 mm 6 mps 750 mmHg 33%
    23:00 +30°C° 0 mm 6 mps 750 mmHg 34%

    23 June, Sunday

    Time Temperature Precipitation Wind Pressure Humidity
    00:00 +30°C° 0 mm 5 mps 750 mmHg 35%
    01:00 +29°C° 0 mm 4 mps 750 mmHg 36%
    02:00 +28°C° 0 mm 3 mps 750 mmHg 37%
    03:00 +28°C° 0 mm 3 mps 750 mmHg 38%
    04:00 +28°C° 0 mm 2 mps 750 mmHg 38%
    05:00 +29°C° 0 mm 2 mps 750 mmHg 39%
    06:00 +29°C° 0 mm 1 mps 750 mmHg 39%
    07:00 +31°C° 0 mm 1 mps 750 mmHg 35%
    08:00 +34°C° 0 mm 2 mps 750 mmHg 30%
    09:00 +36°C° 0 mm 2 mps 750 mmHg 26%
    10:00 +37°C° 0 mm 3 mps 749 mmHg 24%
    11:00 +38°C° 0 mm 3 mps 749 mmHg 22%
    12:00 +40°C° 0 mm 4 mps 749 mmHg 20%
    13:00 +41°C° 0 mm 4 mps 749 mmHg 20%
    14:00 +41°C° 0 mm 5 mps 748 mmHg 20%
    15:00 +41°C° 0 mm 5 mps 748 mmHg 19%
    16:00 +41°C° 0 mm 5 mps 748 mmHg 21%
    17:00 +40°C° 0 mm 5 mps 748 mmHg 23%
    18:00 +39°C° 0 mm 5 mps 748 mmHg 25%
    19:00 +38°C° 0 mm 6 mps 748 mmHg 28%
    20:00 +35°C° 0 mm 7 mps 749 mmHg 31%
    21:00 +33°C° 0 mm 7 mps 749 mmHg 34%
    22:00 +32°C° 0 mm 6 mps 750 mmHg 35%
    23:00 +32°C° 0 mm 6 mps 750 mmHg 37%
    Show more